sat.trackr.live / text

‹ back to catalog

STARLINK-35994

NORAD 66818 · 2025-278AD

PAYLOAD ACTIVE UNKNOWN

§ Identity

Operator
Country
US
Launch date
2025-12-01
Launch site
AFETR
Launch vehicle
Mass (kg)
RCS (m²)

Purposes: comms

External: N2YO · Heavens-Above · Gunter

§ Orbital elements

Epoch: 2026-09-20T21:27:54.319680Z

Period
94.27 min
Inclination
43.0012°
Eccentricity
0.0001130
Mean motion
15.27578617 rev/d
Perigee alt
482.3 km
Apogee alt
483.8 km
Semi-major
6,861.2 km
B*
3.2851e-4
RAAN
91.9097°
Arg perigee
272.9315°
Mean anomaly
87.1408°
Rev number
4,506

§ Raw data

STARLINK-359941 66818U 25278AD  26263.89437870  .00008788  00000+0  32851-3 0  99902 66818  43.0012  91.9097 0001130 272.9315  87.1408 15.27578617 45062

JSON: /api/v1/satellites/66818 · /tle

For live sub-satellite position, see the globe view (requires WebGL).

§ Visibility from observer

Set your observer location to see the next 7 days of passes ≥ 10°. The values pass through the URL so the page stays shareable.

No JS? Fill the form by hand. The geolocation button needs JavaScript.